| time (UTC) | temp C | wind direction | speed KPH | gust KPH | rain 1hr cm | rain 24hr cm | rain mn cm | humidity % | barometer mb |
| 20260507075516 | 8 | 280 | 0.0 | 0.0 | 0.00 | 0.03 | 0.03 | 98 | 1006.4 |
| 20260507075013 | 8 | 272 | 0.0 | 1.6 | 0.00 | 0.03 | 0.03 | 98 | 1006.7 |
| 20260507074509 | 8 | 276 | 0.0 | 1.6 | 0.00 | 0.03 | 0.03 | 99 | 1006.6 |
| 20260507074008 | 8 | 270 | 0.0 | 0.0 | 0.00 | 0.03 | 0.03 | 99 | 1006.3 |
| 20260507073504 | 8 | 269 | 0.0 | 0.0 | 0.00 | 0.03 | 0.03 | 99 | 1006.3 |
| 20260507073000 | 8 | 272 | 0.0 | 1.6 | 0.00 | 0.03 | 0.03 | 99 | 1006.4 |
| 20260507072457 | 8 | 287 | 1.6 | 4.8 | 0.00 | 0.03 | 0.03 | 99 | 1006.4 |
| 20260507071949 | 9 | 275 | 0.0 | 0.0 | 0.00 | 0.03 | 0.03 | 99 | 1006.3 |
| 20260507071446 | 9 | 264 | 0.0 | 1.6 | 0.00 | 0.03 | 0.03 | 99 | 1006.2 |
| 20260507070943 | 9 | 291 | 1.6 | 1.6 | 0.00 | 0.03 | 0.03 | 99 | 1006.1 |
| 20260507070440 | 9 | 273 | 0.0 | 0.0 | 0.00 | 0.03 | 0.03 | 99 | 1006.3 |
| 20260507065937 | 9 | 268 | 0.0 | 0.0 | 0.00 | 0.03 | 0.03 | 99 | 1006.0 |
| 20260507065433 | 10 | 272 | 0.0 | 1.6 | 0.00 | 0.03 | 0.03 | 99 | 1006.3 |
| 20260507064931 | 10 | 272 | 0.0 | 0.0 | 0.00 | 0.03 | 0.03 | 99 | 1006.3 |
| 20260507064429 | 10 | 267 | 0.0 | 0.0 | 0.00 | 0.03 | 0.03 | 99 | 1005.9 |
| 20260507063927 | 10 | 272 | 0.0 | 1.6 | 0.00 | 0.03 | 0.03 | 99 | 1005.9 |
| 20260507063423 | 10 | 266 | 0.0 | 0.0 | 0.00 | 0.03 | 0.03 | 99 | 1005.9 |
| 20260507062920 | 10 | 274 | 0.0 | 0.0 | 0.00 | 0.03 | 0.03 | 99 | 1005.9 |
| 20260507062417 | 10 | 277 | 0.0 | 1.6 | 0.00 | 0.03 | 0.03 | 99 | 1006.0 |
| 20260507061915 | 10 | 270 | 0.0 | 0.0 | 0.00 | 0.03 | 0.03 | 99 | 1005.8 |
| 20260507061413 | 10 | 270 | 0.0 | 0.0 | 0.00 | 0.03 | 0.03 | 99 | 1005.7 |
| 20260507060911 | 10 | 277 | 0.0 | 1.6 | 0.00 | 0.03 | 0.03 | 99 | 1005.7 |
| 20260507060407 | 10 | 319 | 1.6 | 1.6 | 0.00 | 0.03 | 0.03 | 99 | 1005.8 |
| 20260507055904 | 10 | 300 | 1.6 | 1.6 | 0.00 | 0.03 | 0.03 | 99 | 1005.6 |
| 20260507055359 | 10 | 285 | 1.6 | 1.6 | 0.00 | 0.03 | 0.03 | 99 | 1005.5 |
| 20260507054856 | 10 | 287 | 1.6 | 3.2 | 0.00 | 0.03 | 0.03 | 99 | 1005.8 |
| 20260507054352 | 10 | 273 | 0.0 | 3.2 | 0.00 | 0.03 | 0.03 | 99 | 1005.6 |
| 20260507053850 | 10 | 274 | 0.0 | 1.6 | 0.00 | 0.03 | 0.03 | 99 | 1005.3 |
| 20260507053347 | 10 | 280 | 1.6 | 1.6 | 0.00 | 0.03 | 0.03 | 99 | 1005.7 |
| 20260507052846 | 10 | 272 | 0.0 | 1.6 | 0.00 | 0.03 | 0.03 | 99 | 1005.4 |
| 20260507052342 | 10 | 284 | 1.6 | 1.6 | 0.00 | 0.03 | 0.03 | 99 | 1005.2 |
| 20260507051840 | 10 | 283 | 0.0 | 0.0 | 0.00 | 0.03 | 0.03 | 99 | 1005.2 |
| 20260507051338 | 10 | 270 | 0.0 | 1.6 | 0.00 | 0.03 | 0.03 | 99 | 1005.5 |
| 20260507050834 | 10 | 282 | 1.6 | 3.2 | 0.00 | 0.03 | 0.03 | 98 | 1005.4 |
| 20260507050330 | 10 | 293 | 3.2 | 4.8 | 0.00 | 0.03 | 0.03 | 98 | 1005.6 |
| 20260507045827 | 11 | 276 | 0.0 | 1.6 | 0.00 | 0.03 | 0.03 | 98 | 1005.4 |
| 20260507045324 | 11 | 298 | 1.6 | 3.2 | 0.00 | 0.03 | 0.03 | 98 | 1005.2 |
| 20260507044821 | 11 | 291 | 1.6 | 3.2 | 0.00 | 0.03 | 0.03 | 98 | 1005.3 |
| 20260507044318 | 11 | 293 | 1.6 | 3.2 | 0.00 | 0.03 | 0.03 | 98 | 1005.2 |
| 20260507043814 | 11 | 305 | 3.2 | 3.2 | 0.00 | 0.03 | 0.03 | 98 | 1005.0 |
| 20260507043311 | 11 | 334 | 4.8 | 8.0 | 0.00 | 0.03 | 0.03 | 98 | 1005.1 |
| 20260507042807 | 11 | 277 | 1.6 | 3.2 | 0.00 | 0.03 | 0.03 | 98 | 1004.9 |
| 20260507042306 | 11 | 283 | 1.6 | 1.6 | 0.00 | 0.03 | 0.03 | 98 | 1004.9 |
| 20260507041800 | 11 | 293 | 1.6 | 3.2 | 0.13 | 0.03 | 0.03 | 97 | 1005.1 |
| 20260507041256 | 11 | 295 | 1.6 | 1.6 | 0.00 | 0.00 | 0.00 | 97 | 1005.0 |
| 20260507040753 | 11 | 297 | 1.6 | 3.2 | 0.00 | 0.00 | 0.00 | 97 | 1004.9 |
| 20260507040249 | 11 | 285 | 3.2 | 3.2 | 0.18 | 0.00 | 0.00 | 97 | 1005.1 |
| 20260507035745 | 11 | 280 | 1.6 | 1.6 | 0.48 | 1.55 | 1.55 | 96 | 1004.9 |
| 20260507035241 | 12 | 262 | 3.2 | 3.2 | 0.61 | 1.52 | 1.52 | 96 | 1004.9 |
| 20260507034739 | 12 | 287 | 1.6 | 9.7 | 0.18 | 1.45 | 1.45 | 96 | 1004.9 |
| 20260507034235 | 12 | 310 | 8.0 | 9.7 | 0.00 | 1.42 | 1.42 | 96 | 1004.9 |
| 20260507033734 | 12 | 336 | 4.8 | 9.7 | 0.00 | 1.42 | 1.42 | 97 | 1005.0 |
| 20260507033231 | 12 | 285 | 0.0 | 3.2 | 0.00 | 1.42 | 1.42 | 98 | 1004.9 |
| 20260507032728 | 12 | 292 | 3.2 | 4.8 | 0.00 | 1.42 | 1.42 | 98 | 1004.8 |
| 20260507032224 | 13 | 291 | 3.2 | 4.8 | 0.00 | 1.42 | 1.42 | 98 | 1004.5 |
| 20260507031721 | 13 | 277 | 0.0 | 3.2 | 0.00 | 1.42 | 1.42 | 98 | 1004.4 |
| 20260507031217 | 13 | 283 | 3.2 | 9.7 | 0.00 | 1.42 | 1.42 | 99 | 1004.5 |
| 20260507030714 | 13 | 318 | 4.8 | 4.8 | 0.00 | 1.42 | 1.42 | 99 | 1004.3 |
| 20260507030212 | 13 | 300 | 1.6 | 3.2 | 0.00 | 1.42 | 1.42 | 99 | 1004.3 |
| 20260507025709 | 13 | 332 | 3.2 | 3.2 | 0.13 | 1.42 | 1.42 | 99 | 1004.2 |
| 20260507025206 | 13 | 275 | 1.6 | 4.8 | 0.13 | 1.42 | 1.42 | 99 | 1004.4 |
| 20260507024704 | 13 | 289 | 0.0 | 4.8 | 0.00 | 1.40 | 1.40 | 99 | 1004.5 |
| 20260507024201 | 14 | 262 | 0.0 | 3.2 | 0.00 | 1.40 | 1.40 | 99 | 1004.5 |
| 20260507023656 | 14 | 298 | 1.6 | 4.8 | 0.00 | 1.40 | 1.40 | 99 | 1004.4 |
| 20260507023154 | 14 | 305 | 3.2 | 4.8 | 0.00 | 1.40 | 1.40 | 99 | 1004.4 |
| 20260507022651 | 14 | 262 | 1.6 | 1.6 | 0.00 | 1.40 | 1.40 | 99 | 1004.4 |
| 20260507022146 | 14 | 275 | 1.6 | 3.2 | 0.00 | 1.40 | 1.40 | 99 | 1004.6 |
| 20260507021643 | 14 | 265 | 0.0 | 0.0 | 0.00 | 1.40 | 1.40 | 99 | 1004.5 |
| 20260507021138 | 14 | 251 | 0.0 | 3.2 | 0.00 | 1.40 | 1.40 | 99 | 1004.4 |
| 20260507020637 | 14 | 257 | 1.6 | 4.8 | 0.00 | 1.40 | 1.40 | 99 | 1004.6 |
| 20260507020132 | 14 | 247 | 1.6 | 1.6 | 0.00 | 1.40 | 1.40 | 99 | 1004.6 |
| 20260507015631 | 14 | 250 | 1.6 | 4.8 | 0.00 | 1.40 | 1.40 | 99 | 1004.5 |
| 20260507015128 | 14 | 261 | 1.6 | 3.2 | 0.00 | 1.40 | 1.40 | 99 | 1004.5 |
| 20260507014625 | 14 | 250 | 1.6 | 1.6 | 0.00 | 1.40 | 1.40 | 99 | 1004.6 |
| 20260507014121 | 14 | 261 | 3.2 | 3.2 | 0.00 | 1.40 | 1.40 | 99 | 1004.6 |
| 20260507013618 | 14 | 246 | 1.6 | 3.2 | 0.00 | 1.40 | 1.40 | 99 | 1004.8 |
| 20260507013115 | 13 | 253 | 1.6 | 4.8 | 0.00 | 1.40 | 1.40 | 99 | 1004.7 |
| 20260507012612 | 13 | 255 | 1.6 | 3.2 | 0.00 | 1.40 | 1.40 | 99 | 1004.9 |
| 20260507012107 | 13 | 260 | 1.6 | 1.6 | 0.00 | 1.40 | 1.40 | 99 | 1004.8 |
| 20260507011606 | 13 | 259 | 0.0 | 1.6 | 0.18 | 1.40 | 1.40 | 99 | 1004.7 |
| 20260507011101 | 13 | 266 | 0.0 | 3.2 | 0.18 | 1.40 | 1.40 | 99 | 1004.8 |
| 20260507010556 | 13 | 262 | 0.0 | 1.6 | 0.00 | 1.37 | 1.37 | 99 | 1004.8 |
| 20260507010053 | 13 | 259 | 0.0 | 0.0 | 0.00 | 1.37 | 1.37 | 99 | 1004.8 |
| 20260507005550 | 13 | 241 | 1.6 | 1.6 | 0.00 | 1.37 | 1.37 | 99 | 1005.0 |
| 20260507005046 | 13 | 246 | 1.6 | 1.6 | 0.00 | 1.37 | 1.37 | 99 | 1004.9 |
| 20260507004543 | 13 | 250 | 1.6 | 1.6 | 0.00 | 1.37 | 1.37 | 99 | 1005.0 |
| 20260507004041 | 13 | 262 | 0.0 | 3.2 | 0.00 | 1.37 | 1.37 | 99 | 1005.0 |
| 20260507003537 | 13 | 246 | 1.6 | 1.6 | 0.00 | 1.37 | 1.37 | 99 | 1004.9 |
| 20260507003032 | 13 | 258 | 0.0 | 3.2 | 0.00 | 1.37 | 1.37 | 99 | 1004.9 |
| 20260507002529 | 13 | 253 | 0.0 | 1.6 | 0.00 | 1.37 | 1.37 | 99 | 1004.7 |
| 20260507002025 | 13 | 247 | 1.6 | 1.6 | 0.00 | 1.37 | 1.37 | 99 | 1004.8 |
| 20260507001521 | 13 | 253 | 1.6 | 1.6 | 0.00 | 1.37 | 1.37 | 99 | 1004.9 |
| 20260507001019 | 13 | 259 | 1.6 | 3.2 | 0.00 | 1.37 | 1.37 | 99 | 1004.8 |
| 20260507000515 | 13 | 259 | 1.6 | 3.2 | 0.00 | 1.37 | 1.37 | 99 | 1004.7 |
| 20260507000010 | 13 | 236 | 1.6 | 4.8 | 0.00 | 1.37 | 1.37 | 99 | 1004.8 |
| 20260506235508 | 13 | 258 | 1.6 | 3.2 | 0.00 | 1.37 | 1.37 | 99 | 1004.8 |
| 20260506235004 | 13 | 247 | 1.6 | 3.2 | 0.00 | 1.37 | 1.37 | 99 | 1004.8 |
| 20260506234502 | 13 | 260 | 1.6 | 3.2 | 0.00 | 1.37 | 1.37 | 99 | 1004.9 |
| 20260506233958 | 13 | 245 | 1.6 | 3.2 | 0.00 | 1.37 | 1.37 | 99 | 1004.8 |
| 20260506233455 | 13 | 250 | 1.6 | 3.2 | 0.00 | 1.37 | 1.37 | 99 | 1004.7 |
| 20260506232951 | 14 | 238 | 3.2 | 3.2 | 0.00 | 1.37 | 1.37 | 99 | 1004.8 |
| 20260506232448 | 14 | 252 | 1.6 | 3.2 | 0.00 | 1.37 | 1.37 | 99 | 1004.8 |
| 20260506231943 | 14 | 261 | 1.6 | 8.0 | 0.00 | 1.37 | 1.37 | 99 | 1004.7 |
| 20260506231441 | 14 | 253 | 1.6 | 3.2 | 0.00 | 1.37 | 1.37 | 99 | 1004.8 |
| 20260506230938 | 14 | 260 | 1.6 | 3.2 | 0.00 | 1.37 | 1.37 | 99 | 1004.8 |
| 20260506230434 | 14 | 264 | 1.6 | 8.0 | 0.00 | 1.37 | 1.37 | 99 | 1004.9 |
| 20260506225931 | 14 | 248 | 1.6 | 3.2 | 0.00 | 1.37 | 1.37 | 99 | 1004.9 |
| 20260506225429 | 14 | 252 | 1.6 | 3.2 | 0.00 | 1.37 | 1.37 | 99 | 1004.8 |
| 20260506224926 | 14 | 237 | 3.2 | 11.3 | 0.00 | 1.37 | 1.37 | 99 | 1004.9 |
| 20260506224423 | 14 | 257 | 3.2 | 4.8 | 0.00 | 1.37 | 1.37 | 99 | 1004.9 |
| 20260506223919 | 14 | 251 | 6.4 | 8.0 | 0.00 | 1.37 | 1.37 | 99 | 1004.9 |
| 20260506223415 | 14 | 246 | 3.2 | 4.8 | 0.00 | 1.37 | 1.37 | 99 | 1005.2 |
| 20260506222912 | 15 | 254 | 1.6 | 8.0 | 0.00 | 1.37 | 1.37 | 99 | 1005.0 |
| 20260506222409 | 15 | 260 | 3.2 | 4.8 | 0.00 | 1.37 | 1.37 | 99 | 1005.1 |
| 20260506221906 | 15 | 234 | 1.6 | 4.8 | 0.00 | 1.37 | 1.37 | 99 | 1004.9 |
| 20260506221403 | 15 | 233 | 3.2 | 4.8 | 0.18 | 1.37 | 1.37 | 99 | 1005.0 |
| 20260506220900 | 15 | 267 | 1.6 | 4.8 | 0.18 | 1.37 | 1.37 | 99 | 1005.2 |
| 20260506220355 | 15 | 157 | 6.4 | 8.0 | 0.00 | 1.35 | 1.35 | 99 | 1005.3 |
| 20260506215852 | 14 | 256 | 3.2 | 3.2 | 0.13 | 1.35 | 1.35 | 99 | 1005.1 |
| 20260506215348 | 14 | 264 | 1.6 | 3.2 | 0.13 | 1.35 | 1.35 | 99 | 1005.4 |
| 20260506214844 | 14 | 258 | 1.6 | 3.2 | 0.00 | 1.32 | 1.32 | 99 | 1005.3 |
| 20260506214341 | 14 | 267 | 3.2 | 3.2 | 0.00 | 1.32 | 1.32 | 99 | 1005.3 |
| 20260506213839 | 14 | 263 | 0.0 | 3.2 | 0.00 | 1.32 | 1.32 | 99 | 1005.5 |
| 20260506213336 | 14 | 270 | 0.0 | 3.2 | 0.00 | 1.32 | 1.32 | 99 | 1005.5 |
| 20260506212833 | 14 | 263 | 1.6 | 3.2 | 0.00 | 1.32 | 1.32 | 99 | 1005.5 |
| 20260506212329 | 14 | 251 | 1.6 | 3.2 | 0.00 | 1.32 | 1.32 | 99 | 1005.6 |
| 20260506211824 | 14 | 248 | 1.6 | 4.8 | 0.18 | 1.32 | 1.32 | 99 | 1005.7 |
| 20260506211321 | 14 | 255 | 3.2 | 3.2 | 0.18 | 1.32 | 1.32 | 99 | 1005.7 |
| 20260506210818 | 14 | 264 | 1.6 | 3.2 | 0.00 | 1.30 | 1.30 | 99 | 1005.7 |
| 20260506210315 | 14 | 253 | 1.6 | 3.2 | 0.00 | 1.30 | 1.30 | 99 | 1005.8 |
| 20260506205812 | 14 | 236 | 3.2 | 3.2 | 0.13 | 1.30 | 1.30 | 99 | 1005.8 |
| 20260506205308 | 15 | 258 | 1.6 | 3.2 | 0.13 | 1.30 | 1.30 | 99 | 1005.9 |
| 20260506204805 | 15 | 237 | 3.2 | 3.2 | 0.18 | 1.27 | 1.27 | 99 | 1005.9 |
| 20260506204303 | 15 | 229 | 1.6 | 4.8 | 0.30 | 1.27 | 1.27 | 99 | 1005.8 |
| 20260506203800 | 15 | 253 | 3.2 | 4.8 | 0.30 | 1.24 | 1.24 | 99 | 1005.8 |
| 20260506203257 | 15 | 258 | 1.6 | 3.2 | 0.30 | 1.22 | 1.22 | 99 | 1006.1 |
| 20260506202754 | 15 | 258 | 1.6 | 3.2 | 0.30 | 1.19 | 1.19 | 99 | 1006.1 |
| 20260506202251 | 15 | 262 | 1.6 | 3.2 | 0.18 | 1.17 | 1.17 | 99 | 1006.0 |
| 20260506201747 | 15 | 236 | 1.6 | 3.2 | 0.00 | 1.14 | 1.14 | 99 | 1006.0 |
| 20260506201244 | 15 | 258 | 1.6 | 3.2 | 0.00 | 1.14 | 1.14 | 99 | 1005.9 |
| 20260506200741 | 15 | 261 | 0.0 | 1.6 | 0.13 | 1.14 | 1.14 | 99 | 1005.9 |
| 20260506200238 | 15 | 257 | 1.6 | 3.2 | 0.13 | 1.14 | 1.14 | 99 | 1006.0 |
| 20260506195734 | 15 | 254 | 1.6 | 1.6 | 0.18 | 1.12 | 1.12 | 98 | 1006.0 |
| 20260506195231 | 15 | 242 | 1.6 | 3.2 | 0.18 | 1.12 | 1.12 | 98 | 1006.0 |
| 20260506194728 | 15 | 248 | 1.6 | 1.6 | 0.00 | 1.09 | 1.09 | 98 | 1006.2 |
| 20260506194224 | 15 | 242 | 1.6 | 1.6 | 0.00 | 1.09 | 1.09 | 98 | 1006.2 |
| 20260506193722 | 15 | 262 | 0.0 | 1.6 | 0.13 | 1.09 | 1.09 | 98 | 1006.6 |
| 20260506193219 | 15 | 258 | 1.6 | 1.6 | 0.48 | 1.09 | 1.09 | 98 | 1006.4 |
| 20260506192715 | 15 | 253 | 1.6 | 1.6 | 0.30 | 1.04 | 1.04 | 98 | 1006.5 |
| 20260506192212 | 15 | 261 | 1.6 | 1.6 | 0.30 | 1.02 | 1.02 | 98 | 1006.6 |
| 20260506191709 | 15 | 258 | 1.6 | 3.2 | 0.13 | 0.97 | 0.97 | 98 | 1006.7 |
| 20260506191205 | 15 | 263 | 1.6 | 3.2 | 0.18 | 0.94 | 0.94 | 97 | 1006.7 |
| 20260506190702 | 15 | 255 | 1.6 | 1.6 | 0.13 | 0.91 | 0.91 | 97 | 1006.5 |
| 20260506190153 | 15 | 261 | 0.0 | 1.6 | 0.18 | 0.89 | 0.89 | 97 | 1006.6 |
| 20260506185651 | 15 | 266 | 1.6 | 1.6 | 0.48 | 0.89 | 0.89 | 97 | 1006.7 |
| 20260506185146 | 15 | 260 | 1.6 | 1.6 | 1.19 | 0.86 | 0.86 | 97 | 1006.8 |
| 20260506184645 | 15 | 247 | 1.6 | 3.2 | 2.11 | 0.81 | 0.81 | 97 | 1007.0 |
| 20260506184142 | 15 | 260 | 1.6 | 1.6 | 1.68 | 0.64 | 0.64 | 96 | 1007.3 |
| 20260506183638 | 15 | 259 | 1.6 | 1.6 | 1.37 | 0.46 | 0.46 | 95 | 1006.9 |
| 20260506183134 | 15 | 269 | 1.6 | 1.6 | 0.71 | 0.30 | 0.30 | 94 | 1007.1 |
| 20260506182632 | 15 | 262 | 1.6 | 1.6 | 0.61 | 0.20 | 0.20 | 94 | 1006.8 |
| 20260506182128 | 16 | 261 | 1.6 | 3.2 | 0.97 | 0.18 | 0.18 | 92 | 1006.3 |
| 20260506181626 | 16 | 264 | 1.6 | 3.2 | 0.30 | 0.08 | 0.08 | 90 | 1006.6 |
| 20260506181123 | 16 | 260 | 1.6 | 3.2 | 0.13 | 0.03 | 0.03 | 86 | 1006.5 |
| 20260506180620 | 17 | 251 | 1.6 | 3.2 | 0.00 | 0.00 | 0.00 | 85 | 1006.4 |
| 20260506180116 | 18 | 274 | 3.2 | 4.8 | 0.00 | 0.00 | 0.00 | 80 | 1006.3 |
| 20260506175613 | 18 | 262 | 1.6 | 3.2 | 0.00 | 0.00 | 0.00 | 76 | 1006.3 |
| 20260506175109 | 19 | 265 | 3.2 | 4.8 | 0.00 | 0.00 | 0.00 | 73 | 1006.2 |
| 20260506174608 | 20 | 248 | 1.6 | 3.2 | 0.00 | 0.00 | 0.00 | 72 | 1006.1 |
| 20260506174104 | 19 | 275 | 1.6 | 4.8 | 0.00 | 0.00 | 0.00 | 71 | 1006.3 |
| 20260506173602 | 19 | 213 | 4.8 | 4.8 | 0.00 | 0.00 | 0.00 | 71 | 1006.1 |
| 20260506173058 | 19 | 258 | 3.2 | 4.8 | 0.00 | 0.00 | 0.00 | 72 | 1006.4 |
| 20260506172556 | 19 | 255 | 1.6 | 4.8 | 0.00 | 0.00 | 0.00 | 72 | 1006.5 |
| 20260506172052 | 19 | 190 | 4.8 | 8.0 | 0.00 | 0.00 | 0.00 | 72 | 1006.5 |
| 20260506171549 | 19 | 271 | 1.6 | 4.8 | 0.00 | 0.00 | 0.00 | 72 | 1006.5 |
| 20260506171047 | 19 | 236 | 3.2 | 9.7 | 0.00 | 0.00 | 0.00 | 71 | 1006.7 |
| 20260506170544 | 19 | 221 | 4.8 | 8.0 | 0.00 | 0.00 | 0.00 | 72 | 1006.7 |
| 20260506170042 | 19 | 257 | 1.6 | 3.2 | 0.00 | 0.00 | 0.00 | 72 | 1006.9 |
| 20260506165540 | 19 | 196 | 4.8 | 4.8 | 0.00 | 0.00 | 0.00 | 72 | 1007.2 |
| 20260506165036 | 19 | 210 | 3.2 | 4.8 | 0.00 | 0.00 | 0.00 | 72 | 1007.3 |
| 20260506164533 | 19 | 264 | 1.6 | 4.8 | 0.00 | 0.00 | 0.00 | 72 | 1007.4 |
| 20260506164030 | 19 | 345 | 0.0 | 3.2 | 0.00 | 0.00 | 0.00 | 72 | 1007.2 |
| 20260506163526 | 19 | 254 | 1.6 | 4.8 | 0.00 | 0.00 | 0.00 | 72 | 1007.4 |
| 20260506163022 | 19 | 266 | 3.2 | 3.2 | 0.00 | 0.00 | 0.00 | 72 | 1007.3 |
| 20260506162518 | 20 | 240 | 1.6 | 4.8 | 0.00 | 0.00 | 0.00 | 70 | 1007.7 |
| 20260506162016 | 20 | 239 | 1.6 | 1.6 | 0.00 | 0.00 | 0.00 | 71 | 1007.8 |
| 20260506161513 | 19 | 232 | 1.6 | 3.2 | 0.00 | 0.00 | 0.00 | 72 | 1008.0 |
| 20260506161010 | 18 | 260 | 0.0 | 3.2 | 0.00 | 0.00 | 0.00 | 72 | 1008.0 |
| 20260506160508 | 19 | 252 | 1.6 | 3.2 | 0.00 | 0.00 | 0.00 | 72 | 1008.3 |
| 20260506160005 | 18 | 309 | 1.6 | 3.2 | 0.00 | 0.00 | 0.00 | 72 | 1008.2 |
| 20260506155502 | 18 | 250 | 1.6 | 3.2 | 0.00 | 0.00 | 0.00 | 73 | 1008.5 |
| 20260506153634 | 18 | 243 | 3.2 | 3.2 | 0.00 | 0.00 | 0.00 | 74 | 1008.7 |
| 20260506153132 | 18 | 226 | 3.2 | 8.0 | 0.00 | 0.00 | 0.00 | 72 | 1008.7 |
| 20260506152628 | 19 | 263 | 0.0 | 8.0 | 0.00 | 0.00 | 0.00 | 71 | 1008.5 |
| 20260506152126 | 18 | 266 | 0.0 | 3.2 | 0.00 | 0.00 | 0.00 | 72 | 1008.4 |
| 20260506151625 | 18 | 248 | 1.6 | 3.2 | 0.00 | 0.00 | 0.00 | 74 | 1008.5 |
| 20260506151121 | 18 | 253 | 3.2 | 4.8 | 0.00 | 0.00 | 0.00 | 74 | 1008.6 |
| 20260506150618 | 18 | 232 | 1.6 | 3.2 | 0.00 | 0.00 | 0.00 | 73 | 1008.6 |
| 20260506150115 | 18 | 263 | 1.6 | 3.2 | 0.00 | 0.00 | 0.00 | 73 | 1008.6 |
| 20260506145612 | 18 | 246 | 1.6 | 3.2 | 0.00 | 0.00 | 0.00 | 75 | 1008.7 |
| 20260506145109 | 18 | 262 | 1.6 | 3.2 | 0.00 | 0.00 | 0.00 | 74 | 1008.5 |
| 20260506144606 | 19 | 255 | 1.6 | 1.6 | 0.00 | 0.00 | 0.00 | 71 | 1008.5 |
| 20260506144102 | 19 | 295 | 3.2 | 4.8 | 0.00 | 0.00 | 0.00 | 72 | 1008.5 |
| 20260506143601 | 19 | 266 | 0.0 | 1.6 | 0.00 | 0.00 | 0.00 | 72 | 1008.3 |
| 20260506143058 | 18 | 275 | 1.6 | 3.2 | 0.00 | 0.00 | 0.00 | 72 | 1008.3 |
| 20260506142556 | 18 | 256 | 1.6 | 3.2 | 0.00 | 0.00 | 0.00 | 72 | 1008.3 |
| 20260506142054 | 18 | 262 | 1.6 | 4.8 | 0.00 | 0.00 | 0.00 | 73 | 1008.2 |
| 20260506141551 | 18 | 256 | 3.2 | 4.8 | 0.00 | 0.00 | 0.00 | 72 | 1008.5 |
| 20260506141050 | 18 | 257 | 3.2 | 4.8 | 0.00 | 0.00 | 0.00 | 73 | 1008.4 |
| 20260506140547 | 18 | 268 | 0.0 | 1.6 | 0.00 | 0.00 | 0.00 | 73 | 1008.7 |
| 20260506140044 | 18 | 272 | 1.6 | 3.2 | 0.00 | 0.00 | 0.00 | 75 | 1008.6 |
| 20260506135541 | 18 | 268 | 1.6 | 4.8 | 0.00 | 0.00 | 0.00 | 74 | 1008.8 |
| 20260506135037 | 18 | 268 | 3.2 | 3.2 | 0.00 | 0.00 | 0.00 | 74 | 1009.0 |
| 20260506134533 | 18 | 250 | 3.2 | 8.0 | 0.00 | 0.00 | 0.00 | 74 | 1008.9 |
| 20260506134029 | 18 | 262 | 1.6 | 3.2 | 0.00 | 0.00 | 0.00 | 74 | 1008.8 |
| 20260506133527 | 18 | 273 | 0.0 | 3.2 | 0.00 | 0.00 | 0.00 | 74 | 1009.0 |
| 20260506133024 | 18 | 262 | 0.0 | 1.6 | 0.00 | 0.00 | 0.00 | 75 | 1008.8 |
| 20260506132521 | 18 | 258 | 0.0 | 3.2 | 0.00 | 0.00 | 0.00 | 74 | 1008.9 |
| 20260506132018 | 17 | 262 | 1.6 | 1.6 | 0.00 | 0.00 | 0.00 | 75 | 1008.7 |
| 20260506131515 | 17 | 271 | 1.6 | 3.2 | 0.00 | 0.00 | 0.00 | 75 | 1008.8 |
| 20260506131012 | 17 | 278 | 1.6 | 4.8 | 0.00 | 0.00 | 0.00 | 76 | 1008.8 |
| 20260506130508 | 17 | 253 | 3.2 | 3.2 | 0.00 | 0.00 | 0.00 | 76 | 1008.7 |
| 20260506130006 | 17 | 318 | 0.0 | 3.2 | 0.00 | 0.00 | 0.00 | 77 | 1008.8 |
| 20260506125504 | 16 | 270 | 1.6 | 3.2 | 0.00 | 0.00 | 0.00 | 78 | 1008.7 |
| 20260506125001 | 16 | 273 | 0.0 | 1.6 | 0.00 | 0.00 | 0.00 | 79 | 1008.7 |
| 20260506124459 | 16 | 251 | 1.6 | 3.2 | 0.00 | 0.00 | 0.00 | 79 | 1008.7 |
| 20260506123957 | 16 | 260 | 0.0 | 1.6 | 0.00 | 0.00 | 0.00 | 79 | 1009.0 |
| 20260506123455 | 16 | 269 | 0.0 | 1.6 | 0.00 | 0.00 | 0.00 | 78 | 1008.9 |
| 20260506122952 | 15 | 257 | 0.0 | 0.0 | 0.00 | 0.00 | 0.00 | 78 | 1008.9 |
| 20260506122449 | 15 | 257 | 0.0 | 1.6 | 0.00 | 0.00 | 0.00 | 80 | 1009.1 |
| 20260506121947 | 15 | 270 | 0.0 | 1.6 | 0.00 | 0.00 | 0.00 | 80 | 1009.0 |
| 20260506121444 | 14 | 247 | 1.6 | 3.2 | 0.00 | 0.00 | 0.00 | 82 | 1008.9 |
| 20260506120940 | 13 | 245 | 1.6 | 3.2 | 0.00 | 0.00 | 0.00 | 83 | 1008.9 |
| 20260506120438 | 13 | 254 | 1.6 | 1.6 | 0.00 | 0.00 | 0.00 | 83 | 1009.3 |
| 20260506115935 | 13 | 266 | 0.0 | 1.6 | 0.00 | 0.00 | 0.00 | 84 | 1009.3 |
| 20260506115433 | 13 | 258 | 1.6 | 1.6 | 0.00 | 0.00 | 0.00 | 84 | 1009.2 |
| 20260506114931 | 13 | 264 | 1.6 | 1.6 | 0.00 | 0.00 | 0.00 | 84 | 1009.3 |
| 20260506114429 | 13 | 260 | 1.6 | 1.6 | 0.00 | 0.00 | 0.00 | 85 | 1009.0 |
| 20260506113927 | 13 | 242 | 1.6 | 1.6 | 0.00 | 0.00 | 0.00 | 85 | 1009.1 |
| 20260506113425 | 12 | 265 | 0.0 | 0.0 | 0.00 | 0.00 | 0.00 | 85 | 1009.5 |
| 20260506112921 | 12 | 258 | 1.6 | 1.6 | 0.00 | 0.00 | 0.00 | 86 | 1009.4 |
| 20260506112419 | 12 | 265 | 0.0 | 1.6 | 0.00 | 0.00 | 0.00 | 86 | 1009.4 |
| 20260506111916 | 12 | 265 | 0.0 | 0.0 | 0.00 | 0.00 | 0.00 | 85 | 1009.7 |
| 20260506111414 | 12 | 270 | 0.0 | 0.0 | 0.00 | 0.00 | 0.00 | 86 | 1009.7 |
| 20260506110911 | 12 | 266 | 0.0 | 0.0 | 0.00 | 0.00 | 0.00 | 86 | 1009.5 |
| 20260506110408 | 12 | 257 | 0.0 | 1.6 | 0.00 | 0.00 | 0.00 | 87 | 1009.4 |
| 20260506105905 | 12 | 251 | 1.6 | 1.6 | 0.00 | 0.00 | 0.00 | 87 | 1009.9 |
| 20260506105401 | 11 | 269 | 0.0 | 0.0 | 0.00 | 0.00 | 0.00 | 88 | 1009.9 |
| 20260506104859 | 11 | 264 | 0.0 | 0.0 | 0.00 | 0.00 | 0.00 | 88 | 1009.6 |
| 20260506104356 | 11 | 268 | 0.0 | 1.6 | 0.00 | 0.00 | 0.00 | 88 | 1009.6 |
| 20260506103854 | 11 | 245 | 1.6 | 1.6 | 0.00 | 0.00 | 0.00 | 88 | 1009.6 |
| 20260506103351 | 11 | 267 | 0.0 | 0.0 | 0.00 | 0.00 | 0.00 | 88 | 1009.5 |
| 20260506102848 | 11 | 270 | 0.0 | 0.0 | 0.00 | 0.00 | 0.00 | 88 | 1009.4 |
| 20260506102346 | 11 | 268 | 0.0 | 0.0 | 0.00 | 0.00 | 0.00 | 88 | 1009.3 |
| 20260506101843 | 11 | 265 | 0.0 | 0.0 | 0.00 | 0.00 | 0.00 | 88 | 1009.2 |
| 20260506101339 | 11 | 244 | 1.6 | 1.6 | 0.00 | 0.00 | 0.00 | 89 | 1009.3 |
| 20260506100837 | 11 | 256 | 1.6 | 1.6 | 0.00 | 0.00 | 0.00 | 89 | 1009.2 |
| 20260506100335 | 11 | 277 | 0.0 | 0.0 | 0.00 | 0.00 | 0.00 | 89 | 1009.4 |
| 20260506095833 | 11 | 272 | 0.0 | 0.0 | 0.00 | 0.00 | 0.00 | 89 | 1009.3 |
| 20260506095330 | 11 | 264 | 0.0 | 0.0 | 0.00 | 0.00 | 0.00 | 89 | 1009.1 |
| 20260506094827 | 11 | 268 | 0.0 | 0.0 | 0.00 | 0.00 | 0.00 | 89 | 1009.1 |
| 20260506094326 | 11 | 265 | 0.0 | 0.0 | 0.00 | 0.00 | 0.00 | 89 | 1009.3 |
| 20260506093824 | 11 | 268 | 0.0 | 0.0 | 0.00 | 0.00 | 0.00 | 88 | 1009.2 |
| 20260506093320 | 11 | 269 | 0.0 | 0.0 | 0.00 | 0.00 | 0.00 | 87 | 1009.3 |
| 20260506092818 | 11 | 265 | 0.0 | 0.0 | 0.00 | 0.00 | 0.00 | 87 | 1009.0 |
| 20260506092316 | 12 | 265 | 0.0 | 0.0 | 0.00 | 0.00 | 0.00 | 87 | 1009.0 |
| 20260506091812 | 12 | 264 | 0.0 | 0.0 | 0.00 | 0.00 | 0.00 | 86 | 1009.0 |
| 20260506091310 | 12 | 262 | 0.0 | 0.0 | 0.00 | 0.00 | 0.00 | 86 | 1009.1 |
| 20260506090808 | 12 | 260 | 0.0 | 0.0 | 0.00 | 0.00 | 0.00 | 86 | 1009.3 |
| 20260506090305 | 12 | 268 | 0.0 | 0.0 | 0.00 | 0.00 | 0.00 | 85 | 1009.1 |
| 20260506085801 | 12 | 267 | 0.0 | 0.0 | 0.00 | 0.00 | 0.00 | 84 | 1009.2 |
| 20260506085257 | 13 | 255 | 0.0 | 0.0 | 0.00 | 0.00 | 0.00 | 83 | 1009.1 |
| 20260506084754 | 13 | 266 | 0.0 | 0.0 | 0.00 | 0.00 | 0.00 | 82 | 1009.2 |
| 20260506084251 | 13 | 266 | 0.0 | 0.0 | 0.00 | 0.00 | 0.00 | 81 | 1009.2 |
| 20260506083748 | 13 | 258 | 0.0 | 0.0 | 0.00 | 0.00 | 0.00 | 80 | 1009.1 |
| 20260506083245 | 13 | 267 | 0.0 | 0.0 | 0.00 | 0.00 | 0.00 | 80 | 1009.0 |
| 20260506082743 | 14 | 263 | 0.0 | 0.0 | 0.00 | 0.00 | 0.00 | 79 | 1008.9 |
| 20260506082238 | 15 | 237 | 1.6 | 3.2 | 0.00 | 0.00 | 0.00 | 77 | 1008.9 |
| 20260506081736 | 15 | 231 | 3.2 | 3.2 | 0.00 | 0.00 | 0.00 | 75 | 1008.9 |
| 20260506081233 | 15 | 261 | 1.6 | 1.6 | 0.00 | 0.00 | 0.00 | 74 | 1009.0 |
| 20260506080731 | 15 | 250 | 1.6 | 3.2 | 0.00 | 0.00 | 0.00 | 74 | 1008.7 |
| 20260506080227 | 15 | 266 | 0.0 | 0.0 | 0.00 | 0.00 | 0.00 | 74 | 1008.9 |